Wind_Speed
20 18 16 14 13 10 8 6 4 4 5 6 6 3 2 1 1 1 2 4 2 3 5 2 6 8 3 3 8 3 2 2 3 1 1 4 6 14 18 20 25 24 22 20 19 19 17 17 17 15 14 13 12 11 11 10 10 9 8 8 8 8 8 8 8 8 7 7 7 8 8 8 8 8 8 8 8 8 7 6 6 6 7 7 7 8 8 8 7 7 7 6 5 5 5 4 4
19 16 14 12 12 7 3 3 3 3 5 6 6 4 4 3 3 4 2 2 2 4 6 5 8 7 2 1 6 4 3 5 8 6 4 7 12 15 18 22 25 24 22 20 19 19 17 17 17 16 14 12 11 11 11 10 9 9 8 8 8 7 7 7 8 7 6 6 6 7 7 7 7 8 7 7 7 7 6 5 5 5 6 6 5 7 8 7 7 7 7 6 5 5 5 5 4
18 17 14 12 9 4 1 2 5 3 5 6 4 3 4 3 3 2 2 2 4 5 7 7 8 6 4 5 6 5 4 5 6 8 6 9 12 14 19 23 24 24 22 19 18 18 18 18 17 16 14 12 11 11 11 11 9 9 9 8 8 7 7 7 6 6 5 5 5 6 6 6 6 6 5 6 6 6 6 5 4 4 5 5 5 6 6 6 6 6 6 5 5 4 4 4 4
16 15 14 9 6 3 2 3 4 4 5 5 2 4 2 2 1 4 4 4 5 6 8 9 8 4 4 5 6 5 5 5 5 6 6 9 11 17 22 23 23 22 20 18 17 17 17 17 18 16 14 12 11 11 11 11 10 10 9 8 8 7 6 6 5 5 4 4 6 7 6 5 4 5 4 4 4 4 4 4 3 3 4 4 4 4 5 5 5 6 5 5 4 4 4 3 3
12 12 12 7 4 2 3 2 3 6 3 2 0 3 1 1 2 5 5 4 6 7 9 9 7 4 2 4 3 2 4 5 6 6 8 11 14 21 23 24 23 21 19 17 16 16 15 17 19 17 14 12 12 12 11 11 11 10 10 9 8 7 6 5 5 4 4 5 6 6 4 3 3 4 4 3 3 3 2 2 2 3 4 3 4 4 4 5 5 5 5 4 4 3 3 3 4
11 9 6 5 2 1 2 3 4 6 1 2 1 2 2 2 3 5 5 5 6 6 10 8 6 8 5 6 3 4 5 3 6 7 10 14 19 22 23 23 21 20 19 17 15 14 14 16 19 16 12 13 13 12 11 10 11 10 9 9 8 7 6 5 4 3 4 4 5 4 2 2 3 3 3 2 3 3 3 3 3 3 3 3 3 3 4 4 3 4 5 4 3 3 3 2 4
12 8 1 3 2 0 3 4 5 4 3 3 3 3 3 3 4 6 7 7 6 6 8 6 7 9 5 6 5 7 7 4 5 8 12 18 22 22 22 22 20 20 18 16 14 13 13 16 17 13 13 14 13 12 11 10 10 10 9 8 7 7 6 4 3 3 3 2 2 1 2 3 2 3 3 3 4 4 4 3 3 3 3 2 3 3 3 3 2 4 4 2 1 2 3 2 2
12 6 1 4 4 2 4 5 3 2 2 2 3 3 3 4 4 5 7 7 7 8 8 7 8 6 5 5 5 7 7 6 6 10 16 22 23 22 22 20 20 19 18 16 14 13 13 15 16 13 13 14 12 12 11 11 10 9 9 8 7 6 5 4 3 3 3 2 2 1 2 3 4 3 3 4 4 4 4 3 3 3 2 2 2 2 3 2 2 3 3 1 1 2 3 3 2
10 3 1 4 4 3 4 4 1 1 1 1 1 3 3 4 3 5 7 7 8 9 10 9 7 4 7 7 5 7 7 8 9 14 19 23 23 22 21 20 20 19 18 15 13 13 12 15 15 12 13 11 11 11 10 10 9 8 8 7 5 5 5 4 4 5 6 4 1 2 3 3 3 3 3 3 3 3 3 3 3 2 2 2 2 1 2 1 1 2 2 1 1 1 2 2 2
6 1 2 3 4 4 4 3 1 2 2 2 2 4 3 3 4 5 7 8 7 10 11 9 6 4 8 8 6 5 6 9 12 16 19 22 22 21 20 20 19 19 17 15 14 13 13 14 14 12 12 10 10 11 10 10 10 8 6 6 5 4 5 5 4 5 6 3 3 3 3 2 2 2 3 3 3 2 3 3 2 3 3 3 2 2 2 2 2 2 1 1 0 0 1 1 1
4 2 3 3 4 3 2 1 2 2 3 2 3 3 2 3 4 6 7 7 6 9 11 8 7 7 8 6 5 5 6 9 13 17 20 21 21 20 20 19 18 18 17 16 14 13 13 13 13 12 11 10 10 10 10 10 11 9 6 5 5 5 5 5 4 4 3 4 4 2 2 1 1 2 3 3 3 2 2 3 3 3 3 3 3 3 3 3 3 2 2 2 2 1 1 1 1
3 3 4 3 3 1 1 2 2 2 2 3 4 3 2 4 5 6 7 7 8 10 11 7 6 7 7 6 5 6 8 9 13 18 20 20 20 19 18 17 17 16 15 15 14 13 12 12 12 11 11 10 10 9 9 9 10 10 7 6 5 6 6 5 5 4 4 4 2 2 1 1 1 2 2 2 2 2 3 3 3 3 3 3 4 4 4 4 4 4 4 4 4 3 3 2 2
2 2 3 2 3 2 2 2 2 1 2 3 3 3 3 4 4 4 5 7 9 10 10 6 6 6 4 6 6 7 9 10 14 18 20 19 19 18 17 16 16 15 14 14 13 12 12 11 11 11 11 10 10 10 9 9 10 9 8 8 8 7 6 5 5 4 4 3 1 1 1 1 1 2 2 2 3 3 3 4 4 4 4 5 5 5 5 5 5 5 5 5 5 5 4 4 4
2 1 2 1 1 3 4 2 1 0 2 2 2 3 2 3 2 2 4 8 8 6 9 7 5 6 4 6 6 7 9 12 16 19 20 18 18 17 16 15 15 14 14 13 13 12 12 11 10 10 11 10 10 9 9 9 9 9 8 9 8 7 7 6 5 4 4 3 2 2 2 2 2 2 1 1 2 2 3 4 4 3 4 4 5 5 6 6 6 6 6 6 6 5 5 5 4
2 1 2 1 1 2 3 1 1 1 2 3 3 2 3 2 1 1 1 4 6 5 7 7 3 3 3 4 5 9 13 16 19 20 19 18 17 16 15 15 14 13 13 12 12 12 11 11 10 10 11 11 10 9 9 9 9 9 9 8 8 8 7 6 5 4 4 3 3 3 3 3 3 3 3 1 1 1 2 3 2 2 3 4 4 5 5 6 6 6 6 6 6 6 6 6 6
2 1 2 1 2 2 2 1 1 1 2 5 4 3 3 4 1 1 1 1 6 6 4 5 2 1 1 1 7 15 19 20 22 20 19 18 16 15 14 13 13 12 11 12 12 11 11 11 10 10 11 10 10 9 9 9 10 10 9 9 9 8 7 6 6 4 4 4 3 3 3 3 3 4 4 2 2 2 1 1 1 2 3 3 4 4 4 5 5 6 6 6 6 7 7 7 7
2 2 2 2 3 2 0 2 1 1 3 6 7 6 4 5 3 2 2 3 7 7 4 5 4 4 4 5 14 21 22 23 23 21 19 18 16 15 14 13 12 12 11 11 11 10 11 11 10 10 10 10 10 9 8 8 9 10 9 8 8 7 6 6 6 4 4 4 3 4 3 2 2 2 2 2 2 2 2 1 1 2 2 3 4 4 5 5 5 5 6 6 6 7 7 7 7
2 1 1 2 2 0 1 4 3 0 3 7 8 7 4 5 5 3 5 7 7 8 7 6 8 8 8 13 19 23 24 24 23 21 19 17 16 14 14 13 12 12 11 11 11 10 10 10 11 10 10 10 10 9 8 9 8 9 8 8 8 7 7 7 6 5 5 5 4 4 3 3 3 2 2 2 3 2 2 2 1 2 2 3 4 4 4 5 5 5 5 6 6 7 6 5 6
2 2 2 2 2 1 2 6 6 3 3 8 9 8 4 3 5 3 5 8 8 7 7 7 10 11 12 16 20 23 24 24 23 21 19 18 16 15 14 13 13 12 12 11 11 11 10 10 11 11 10 11 11 10 8 9 8 9 8 8 8 8 8 7 6 6 6 5 5 4 4 4 4 3 4 3 2 2 1 1 1 2 3 3 4 4 4 5 5 5 5 6 6 6 5 4 5
2 2 1 1 4 3 7 9 6 4 3 8 9 8 5 3 4 2 4 8 7 6 6 7 9 12 13 16 19 22 22 22 21 19 19 18 16 16 14 14 13 12 12 11 11 12 12 11 11 11 11 11 11 10 9 9 9 9 8 8 8 7 7 7 7 6 6 6 5 5 4 4 4 4 5 3 2 2 2 2 2 3 3 3 4 5 4 4 5 3 4 5 4 3 3 3 4
2 3 2 2 7 5 7 6 5 5 4 7 9 8 6 5 5 2 3 5 4 3 4 5 9 13 15 16 18 19 20 20 20 18 18 17 16 15 14 14 13 12 12 11 11 12 13 12 11 12 11 11 11 10 9 9 9 9 9 8 8 7 7 6 7 7 7 7 6 5 4 5 4 4 4 3 3 2 2 2 2 2 2 3 4 4 3 4 4 3 3 3 2 2 3 4 4
2 5 6 4 5 1 1 4 5 5 5 7 9 8 6 5 5 4 3 3 2 1 2 5 9 13 15 16 17 17 18 18 18 17 18 17 17 15 14 13 12 12 11 10 11 11 13 12 11 11 12 12 12 10 9 8 9 9 9 8 8 7 7 7 6 6 6 7 6 5 5 5 5 4 4 4 3 3 3 2 2 2 2 3 3 3 3 3 4 4 3 4 4 4 4 4 4
3 3 4 2 1 1 2 4 5 4 5 7 8 7 5 6 5 4 4 3 3 1 2 7 9 12 15 16 16 16 17 17 17 17 18 18 17 15 14 13 12 12 11 11 10 11 12 13 12 11 11 12 12 11 9 8 9 9 8 9 8 7 7 7 6 6 6 7 8 6 6 5 4 4 4 4 3 3 3 3 2 2 3 3 3 4 4 4 4 4 4 4 5 6 5 5 5
4 3 1 2 1 2 4 5 5 5 6 6 6 6 5 6 4 3 4 3 3 0 4 9 10 12 14 15 14 15 16 16 16 17 17 16 16 15 13 12 11 11 11 11 11 11 12 13 13 12 11 11 12 12 10 9 9 9 8 8 9 8 7 6 6 6 7 8 8 8 7 6 5 5 4 4 4 4 4 4 4 4 4 4 4 4 4 4 5 5 4 5 6 6 6 7 6
5 2 2 3 2 3 4 5 6 7 7 5 6 6 4 4 2 2 4 3 3 2 6 10 11 12 13 14 14 13 14 15 15 16 15 14 14 14 12 12 12 11 11 12 11 11 12 13 13 13 12 11 11 11 11 10 9 9 9 9 9 9 9 7 6 7 7 7 8 9 8 7 6 5 5 5 5 5 5 5 5 5 5 5 5 5 5 5 5 5 5 6 6 6 7 7 6
3 2 4 4 4 5 4 5 7 7 6 4 5 5 3 4 3 4 5 5 4 4 8 10 11 12 11 12 13 12 12 13 13 15 14 13 14 14 14 13 12 12 12 12 12 11 11 12 13 14 13 12 11 11 11 10 9 9 9 9 9 9 9 8 8 7 7 7 7 9 10 9 7 6 6 6 6 6 6 7 7 7 7 6 6 6 6 6 6 6 6 7 7 7 8 8 8
4 4 6 6 6 5 3 5 6 6 6 4 4 3 3 3 4 4 4 7 7 6 8 10 10 11 11 11 11 11 11 12 12 13 14 14 14 15 15 14 13 13 12 13 13 11 12 13 13 14 14 13 12 11 11 11 10 10 9 9 9 9 9 9 9 8 8 8 8 10 13 11 9 8 7 7 7 8 8 8 8 8 8 7 7 7 6 6 7 7 8 8 8 8 9 9 10
6 6 7 7 6 5 4 5 5 4 5 4 3 4 3 3 5 3 5 7 8 7 8 10 9 9 11 11 11 9 9 12 13 13 14 14 14 15 15 15 14 14 14 14 13 12 13 14 14 14 14 15 14 13 12 12 11 10 10 9 9 9 10 10 9 9 9 9 9 12 14 13 12 10 9 9 9 9 9 8 8 8 8 7 7 7 8 7 8 9 9 9 9 9 9 10 10
7 5 4 7 6 5 5 5 4 3 3 4 4 4 5 5 6 4 5 6 8 8 8 9 9 8 10 10 10 9 10 12 13 13 14 15 14 15 16 16 15 14 13 13 13 13 13 13 13 14 14 15 16 14 12 11 10 10 10 9 9 9 10 10 10 9 10 10 11 14 15 15 15 12 10 10 10 10 10 9 9 9 8 8 8 8 9 9 9 9 9 9 9 9 10 10 10
6 3 2 4 5 4 5 5 5 3 3 5 5 1 3 6 6 4 6 7 8 9 8 8 9 8 9 9 9 9 10 12 13 13 14 14 14 15 15 15 15 14 12 12 13 14 13 12 12 13 14 15 15 14 13 12 11 10 10 10 11 12 12 12 12 11 11 11 12 14 16 17 16 14 12 10 10 10 10 10 10 10 9 9 9 10 10 10 10 10 10 10 10 10 10 10 10
4 4 2 1 0 4 7 6 7 5 3 6 6 1 3 5 7 6 5 7 8 8 8 8 8 8 9 9 9 9 11 12 13 14 14 14 13 13 14 14 14 14 12 12 13 13 13 13 12 12 13 15 15 15 16 15 14 12 12 12 11 13 15 14 13 12 12 12 11 13 15 17 18 16 15 12 10 11 11 11 11 10 10 10 11 11 11 11 11 11 11 11 11 10 10 10 10
3 2 1 1 2 4 7 6 7 5 4 7 6 1 4 5 6 7 5 7 8 7 8 9 9 9 9 9 9 9 10 12 13 14 14 14 13 12 13 13 14 14 13 12 12 12 13 13 13 13 13 15 15 16 16 16 14 12 12 13 12 12 14 15 14 14 13 13 12 12 13 16 18 17 16 14 12 11 12 12 12 11 11 12 12 12 12 12 12 12 11 11 11 11 11 11 11
2 2 3 3 3 2 5 6 7 5 5 7 7 2 3 5 6 7 6 6 8 7 7 9 9 9 9 8 9 8 9 10 11 12 13 14 13 13 13 13 13 13 13 12 11 12 12 12 13 13 13 13 14 14 14 14 14 13 13 13 13 13 14 14 14 14 14 14 14 13 12 13 16 17 17 16 14 12 12 12 12 12 11 12 12 13 14 14 13 13 11 11 11 12 12 13 12
1 2 2 2 3 2 3 5 7 7 6 6 7 4 1 6 6 7 7 7 8 7 7 9 9 8 8 8 8 9 9 10 10 12 14 14 14 14 13 13 13 13 13 13 12 12 12 12 12 12 12 12 12 12 13 13 12 13 14 13 13 14 14 14 13 13 14 14 14 14 13 13 14 15 15 16 15 12 11 11 11 11 11 11 12 14 14 14 14 14 13 12 11 12 13 13 14
4 4 4 2 1 1 1 4 7 10 8 5 6 5 2 6 7 7 8 7 7 7 7 8 9 9 9 8 9 9 10 10 11 14 15 15 14 14 13 13 13 13 13 13 13 13 12 12 12 12 12 12 11 11 12 12 11 13 14 13 13 15 15 14 14 14 14 14 14 14 15 16 17 16 17 17 15 12 10 10 11 11 12 12 12 13 13 13 14 14 14 13 12 12 13 13 13
7 6 5 5 2 0 3 4 7 9 7 5 6 4 3 7 8 7 8 8 8 7 7 7 8 9 9 9 9 9 10 11 12 14 16 16 15 14 13 13 13 13 13 13 13 14 14 14 13 13 13 12 11 11 12 12 11 12 13 13 14 14 14 14 14 15 14 14 14 13 15 18 19 19 18 17 14 12 11 11 11 12 12 12 12 12 12 13 14 15 15 15 14 14 14 14 13
7 7 5 5 3 1 4 4 6 6 5 4 5 4 3 4 6 7 7 8 8 8 8 8 8 9 9 9 10 10 10 9 10 13 14 16 16 16 14 14 14 14 14 14 15 15 15 15 15 15 14 13 12 12 12 12 12 12 13 13 13 12 11 12 12 13 14 13 14 14 14 15 17 18 16 14 13 12 11 11 12 14 14 13 13 13 13 14 15 15 15 16 16 16 15 14 13
7 7 5 4 2 3 5 4 6 5 5 3 4 5 5 4 5 7 8 9 9 9 10 9 10 9 9 10 10 10 9 8 10 12 13 15 16 16 15 15 15 16 16 16 17 17 16 16 15 16 15 13 14 15 13 13 14 14 13 11 10 10 10 10 10 11 11 12 13 14 14 14 15 14 12 13 14 14 13 11 13 16 17 15 15 16 17 17 17 15 14 14 16 18 16 14 12
7 5 5 3 0 3 5 4 6 6 4 2 3 4 4 5 6 7 9 8 7 8 10 9 10 10 9 10 10 10 10 10 11 12 13 15 15 16 16 16 16 17 17 17 18 18 17 16 16 16 15 15 15 15 15 16 15 13 12 10 9 9 9 10 10 11 11 12 12 12 13 15 16 12 11 13 14 15 15 14 15 16 17 17 16 16 17 17 17 16 15 14 15 18 16 14 12
6 5 5 2 1 2 3 5 7 6 3 0 1 4 3 5 6 7 9 8 7 7 9 9 9 10 10 10 10 10 11 11 11 12 13 14 15 16 17 16 16 16 17 17 18 18 18 17 17 16 16 16 16 15 17 17 12 10 11 11 11 10 10 11 11 13 13 14 13 12 13 15 16 13 12 14 15 16 16 17 18 16 16 16 15 15 16 17 17 17 17 16 15 16 15 14 13
5 3 4 4 2 3 1 6 7 6 5 3 3 5 4 6 7 7 8 8 8 8 9 9 9 9 9 10 10 10 10 10 11 12 12 13 14 16 17 16 16 16 17 18 18 17 17 17 18 17 17 17 17 16 15 14 11 10 10 10 11 11 12 12 13 14 14 13 13 13 13 13 14 13 13 15 16 16 17 19 20 17 16 16 15 15 16 17 17 17 17 17 16 15 14 14 13
4 2 4 8 7 4 3 8 8 5 5 6 6 5 2 4 6 7 8 9 9 9 9 10 10 10 10 10 10 10 10 10 10 11 11 12 12 14 16 16 16 16 16 17 17 16 16 16 16 16 17 17 17 16 14 12 12 12 11 10 11 11 11 12 13 13 12 11 12 11 11 11 12 13 13 14 15 15 15 17 18 17 16 15 15 15 16 17 18 17 17 16 17 16 14 13 15
3 5 6 9 6 4 6 8 7 3 2 5 5 5 1 3 5 7 8 9 10 10 10 11 10 11 11 10 10 11 11 11 10 11 11 12 13 13 14 15 16 15 15 15 14 15 15 14 14 15 15 15 15 15 14 13 13 13 14 13 13 12 12 12 11 11 10 11 11 11 11 11 12 13 13 13 14 14 14 15 15 15 14 14 14 15 17 17 17 17 16 16 16 15 14 14 16
2 9 8 6 2 5 8 8 6 1 3 5 5 4 3 2 4 6 8 9 10 11 11 11 11 11 12 12 12 12 12 11 11 11 12 12 13 14 14 14 14 14 13 13 12 12 13 13 13 13 14 14 13 12 12 14 14 13 14 14 14 13 13 12 10 10 10 10 10 11 11 11 11 12 13 13 13 14 14 14 14 13 13 13 14 15 17 17 17 17 16 16 16 15 16 16 17
4 8 7 3 1 5 7 6 4 1 2 4 6 4 4 2 4 5 8 9 10 13 13 13 13 13 13 13 13 13 12 12 11 11 12 12 13 15 15 14 13 13 12 12 12 11 11 12 12 12 12 12 11 11 12 13 13 13 12 12 12 12 12 12 11 10 10 10 10 11 11 10 10 11 13 13 13 14 14 14 13 13 14 14 15 16 17 17 17 18 17 17 17 17 17 17 17
4 2 2 1 3 5 5 5 2 2 6 4 7 7 5 2 5 6 7 7 9 11 12 13 14 14 14 13 13 13 12 11 11 11 11 12 14 15 15 14 13 13 12 12 12 11 11 11 12 12 12 10 10 10 10 11 11 11 11 11 11 11 11 10 10 9 9 9 10 10 10 10 10 10 12 13 14 14 15 15 15 15 16 16 16 16 17 17 18 18 19 19 19 19 18 18 18
0 3 4 4 5 5 4 3 2 4 6 3 6 7 5 3 3 4 3 4 5 6 9 12 15 16 15 14 13 13 12 11 11 11 11 12 14 14 14 14 14 14 13 12 12 12 11 11 12 12 11 10 10 9 9 9 9 10 10 10 11 11 11 10 9 9 9 9 10 10 10 10 10 11 12 13 14 15 15 15 16 17 17 17 17 17 17 18 18 18 19 19 20 20 20 19 19
5 5 5 4 4 5 4 4 4 6 4 3 4 5 6 5 2 3 3 3 3 3 5 10 15 17 15 13 13 13 12 12 11 11 11 12 12 13 14 13 14 14 14 13 13 13 12 12 11 11 11 10 10 10 10 10 9 9 10 10 11 11 11 10 10 10 9 9 10 10 10 10 11 11 13 14 15 15 16 17 17 17 17 17 18 18 18 19 19 19 19 20 20 20 20 20 19
6 5 6 6 4 5 6 5 5 5 2 5 3 4 5 6 4 3 5 7 6 4 3 6 11 15 16 15 14 12 12 12 12 11 11 11 11 11 13 13 13 14 14 14 14 13 12 12 12 12 11 11 11 11 10 10 10 10 10 10 11 10 10 10 10 9 9 9 8 9 10 10 11 11 13 14 15 15 16 16 16 16 16 17 18 19 19 19 20 21 21 21 20 20 19 19 20
8 6 6 7 6 6 7 5 5 5 2 5 3 3 5 6 4 4 5 6 6 5 4 4 5 10 14 16 15 13 13 12 12 12 11 11 11 11 13 14 14 14 14 14 14 13 11 11 11 11 11 11 11 10 10 10 10 10 10 10 9 9 9 9 9 8 8 7 8 9 10 11 12 12 13 14 15 16 16 15 16 17 18 18 18 19 19 19 20 21 22 21 21 20 19 19 21
8 7 6 7 6 6 6 5 6 5 2 4 4 3 5 4 2 3 3 4 4 4 4 4 5 7 10 14 16 14 13 12 11 12 12 11 12 13 14 14 14 14 14 14 13 13 12 11 11 11 11 11 10 10 10 10 10 10 10 10 9 8 8 7 7 7 7 7 8 10 10 11 13 15 16 17 17 18 19 18 18 19 20 20 20 20 20 20 21 22 22 21 21 20 20 21 22
6 5 6 7 5 5 4 2 4 3 1 3 5 4 5 2 2 5 5 5 6 6 5 6 7 8 9 12 15 15 13 13 12 12 12 12 13 14 14 14 14 14 14 13 13 13 13 12 12 12 11 11 10 11 11 11 10 10 10 10 9 8 7 7 7 6 6 7 8 9 10 11 14 15 16 16 17 18 19 19 20 20 21 21 20 20 20 21 21 21 21 21 21 20 20 21 21
4 5 7 4 2 5 5 3 2 3 6 4 4 5 5 3 5 7 7 6 8 8 9 8 9 10 11 11 13 14 13 13 13 12 13 13 13 14 15 15 15 14 14 14 13 13 13 13 12 12 11 11 11 11 11 10 10 10 10 10 9 8 8 8 7 5 5 6 7 8 9 10 12 13 14 14 15 16 17 18 19 19 20 19 20 20 20 21 21 21 21 21 21 21 21 21 21
3 4 5 4 1 5 5 4 4 5 8 4 4 7 7 4 4 5 6 7 7 8 8 8 10 11 11 11 13 15 14 14 14 13 13 13 13 15 16 16 15 15 14 14 14 13 12 12 12 12 12 11 11 11 11 10 10 10 9 9 9 9 8 7 6 5 6 6 7 8 9 10 11 12 13 13 14 15 16 17 18 19 19 19 20 20 20 21 20 20 21 21 22 22 21 22 21
7 4 1 3 5 6 5 5 6 6 7 5 6 7 6 5 4 3 6 6 4 6 7 8 10 12 11 12 14 16 15 14 13 13 13 12 13 15 16 16 15 15 14 14 14 13 12 11 11 11 11 11 11 11 10 10 10 10 9 9 9 8 7 6 6 7 7 7 8 9 10 11 12 12 12 13 14 15 16 16 17 18 19 19 20 20 20 20 20 21 21 21 22 21 21 21 21
7 6 4 5 5 4 4 5 6 6 6 6 6 5 5 5 4 6 6 3 1 3 6 7 9 11 11 11 13 15 15 13 13 13 13 13 14 16 17 16 15 15 14 13 13 14 13 12 11 11 11 11 12 11 11 11 11 10 9 8 8 8 8 8 8 8 8 9 11 11 11 12 12 12 13 14 15 16 16 17 17 18 19 19 20 20 20 20 20 20 21 22 21 20 20 20 21
9 8 8 7 4 3 4 5 6 6 6 6 5 5 4 0 1 5 4 1 0 1 3 6 7 10 11 11 12 13 13 13 13 13 13 13 14 16 17 16 14 14 13 12 12 13 13 11 11 11 11 12 12 12 11 11 11 10 10 10 10 10 10 9 10 10 10 11 12 12 12 12 12 13 14 15 16 17 18 18 18 19 19 20 20 21 21 21 21 20 21 22 21 20 20 20 21
7 9 9 10 8 6 6 6 6 6 6 6 5 6 4 3 3 2 2 1 1 0 2 5 7 10 11 11 12 12 12 13 14 14 13 12 13 15 16 16 15 14 13 12 12 11 11 11 11 11 12 12 12 12 12 12 11 11 11 11 11 10 11 11 11 12 12 12 13 13 13 13 14 14 15 16 17 18 18 18 19 20 20 20 21 21 22 23 23 22 22 22 22 21 21 21 21
Wind_Direction
154 156 149 153 157 164 175 186 224 194 230 246 230 225 155 206 67 214 168 132 171 145 145 156 163 147 125 176 169 156 40 98 50 50 93 73 130 145 150 149 147 146 146 148 151 158 162 162 165 166 164 162 160 159 158 153 154 153 152 151 148 145 141 142 140 138 134 133 131 126 123 122 118 114 111 109 110 110 109 109 106 102 101 101 104 106 107 110 115 122 126 129 129 134 140 147 171
154 152 153 161 163 181 178 202 245 182 226 245 230 205 135 152 173 213 196 142 90 116 153 152 156 151 78 158 168 166 100 70 56 69 82 106 132 143 151 149 146 147 145 147 151 156 162 166 167 163 161 162 162 162 158 154 157 156 155 154 150 148 147 146 146 142 137 134 127 120 114 109 102 100 100 101 103 104 102 101 95 91 92 94 101 102 102 109 114 113 115 119 121 131 139 142 155
154 148 155 165 165 210 201 201 243 194 213 238 219 131 123 182 187 168 125 130 100 129 158 143 149 157 162 163 167 172 114 92 91 78 97 135 136 146 153 150 148 146 145 147 153 157 161 167 166 161 162 164 164 166 159 158 161 159 158 157 154 155 153 148 149 146 139 130 117 108 102 98 94 94 91 92 93 97 100 98 95 88 90 95 99 99 106 110 106 99 101 108 109 115 122 133 144
154 148 152 172 174 214 215 203 240 219 216 243 218 85 99 201 165 110 115 129 136 163 158 148 145 158 201 151 144 149 101 110 114 72 118 149 141 148 152 150 148 146 148 149 154 156 160 167 165 165 169 164 166 169 163 164 165 162 161 159 160 158 154 151 149 144 133 116 104 99 102 107 104 103 97 92 91 101 109 100 90 92 96 100 99 102 112 110 106 100 98 100 94 97 108 125 141
156 158 158 194 203 184 224 214 234 230 229 263 312 61 86 159 122 118 124 135 158 173 157 162 145 147 193 99 118 135 94 112 114 90 124 139 139 148 149 149 148 148 150 150 155 155 161 171 168 171 174 166 165 167 166 169 166 164 165 163 163 158 155 156 149 140 123 101 94 91 102 112 97 95 96 92 84 87 93 88 80 83 90 94 97 103 107 104 113 108 101 107 104 109 121 138 151
154 154 164 233 240 56 245 228 233 239 342 343 296 88 113 124 124 128 133 140 160 172 159 169 146 154 145 94 73 52 60 91 125 118 123 135 141 147 147 149 150 150 150 150 156 153 162 177 174 176 178 168 162 165 169 168 166 168 167 164 163 158 157 156 145 131 113 91 92 91 88 99 90 88 86 78 74 73 74 79 79 79 85 96 101 106 105 100 113 104 97 107 110 129 135 149 160
155 147 159 241 219 240 247 243 253 265 47 345 317 72 104 118 130 142 143 144 156 167 165 167 149 156 130 117 114 69 55 52 118 125 130 139 143 147 147 149 150 149 149 151 155 153 167 179 174 175 173 164 161 166 169 166 167 170 168 165 164 161 161 155 136 108 115 128 136 119 74 81 68 66 54 53 68 70 72 70 71 74 76 88 100 105 102 92 95 88 91 106 102 125 113 109 136
166 163 174 214 216 209 248 254 269 321 50 345 337 51 103 127 143 158 152 154 156 163 173 169 160 150 109 143 134 88 67 61 102 121 133 141 144 148 150 151 150 150 150 152 155 154 173 178 170 168 163 160 163 165 166 167 168 172 171 167 166 163 158 154 154 144 169 239 221 163 81 68 45 52 33 43 68 62 60 60 60 59 59 66 83 96 90 69 62 82 94 122 84 63 57 58 44
174 176 168 217 234 219 249 255 227 26 57 35 73 90 117 135 153 161 155 158 158 164 171 167 172 142 123 141 115 107 85 79 109 124 137 142 144 148 150 153 151 151 151 154 155 153 167 170 166 164 160 162 166 165 163 166 170 177 175 166 164 157 155 173 203 202 226 264 163 109 86 64 38 40 20 37 60 47 50 52 51 46 48 44 50 70 69 47 24 72 98 118 75 35 28 28 1
173 198 207 234 250 242 246 239 145 115 96 73 102 114 132 153 156 157 156 150 154 161 155 157 174 141 133 133 107 112 91 102 123 130 141 143 144 148 150 154 152 152 153 154 155 154 161 164 165 162 163 169 168 164 162 169 174 182 186 169 164 157 161 187 219 226 237 231 125 103 81 75 38 20 12 41 60 45 44 39 39 33 31 28 23 20 16 13 6 30 48 15 11 189 168 205 270
174 196 222 246 252 251 257 248 90 86 89 101 113 119 149 162 154 152 150 143 156 156 146 159 168 140 130 121 100 104 107 128 134 136 143 143 145 148 148 151 152 154 154 155 154 154 158 163 169 165 166 169 168 166 170 183 180 181 192 173 160 169 180 202 229 248 208 145 128 108 94 100 17 4 10 40 54 42 36 26 23 23 19 14 8 5 4 358 356 353 348 339 330 318 245 241 243
195 186 213 247 265 273 358 17 66 69 101 128 132 138 162 169 159 148 149 145 157 152 148 166 156 143 136 121 106 118 136 141 137 140 144 144 146 148 148 150 152 154 153 155 154 154 155 161 170 172 171 169 172 175 183 196 187 184 191 186 182 189 203 218 239 243 168 140 131 114 129 202 348 351 12 30 37 33 27 21 16 17 11 7 0 356 358 350 349 341 336 335 327 323 320 319 291
241 206 223 270 307 343 19 47 71 62 140 134 133 136 164 176 150 135 157 148 154 153 146 151 145 156 137 114 124 137 146 142 141 144 144 145 147 147 147 149 153 154 154 157 156 156 155 158 168 175 178 175 178 184 191 200 197 194 195 199 201 200 211 219 236 227 173 163 182 160 240 246 299 324 13 16 15 18 19 21 15 15 12 10 6 360 0 353 348 345 340 337 330 325 328 329 314
239 243 266 295 332 353 17 30 68 131 141 123 122 143 176 170 115 137 181 150 141 131 129 133 148 162 141 130 150 154 150 147 149 147 145 146 147 148 147 149 154 154 156 160 161 159 157 160 166 173 179 181 184 190 198 205 203 201 204 208 210 211 218 223 233 223 189 190 210 212 253 264 290 303 343 353 349 359 30 31 10 20 24 12 7 360 358 355 351 351 348 342 335 331 334 329 316
223 232 266 297 35 35 48 25 322 20 126 138 135 166 173 123 109 182 201 134 118 102 127 140 167 170 154 176 164 149 152 153 153 149 146 145 145 147 146 150 154 154 158 161 164 164 163 163 165 170 176 181 186 191 198 208 212 207 210 216 218 221 223 229 234 225 206 207 216 229 251 271 315 325 319 335 344 352 57 40 353 17 33 17 10 6 4 2 358 356 355 350 345 343 340 330 320
207 237 269 326 44 28 58 124 297 17 128 148 145 190 174 123 130 121 37 67 120 129 135 133 161 10 36 190 127 137 149 152 154 150 146 144 145 147 147 153 154 155 160 164 168 168 169 168 167 169 174 181 185 189 194 203 215 212 212 220 221 221 223 230 236 230 217 220 228 247 267 290 321 321 328 350 332 334 27 13 336 9 22 14 10 9 9 7 2 359 357 353 351 348 339 328 324
195 241 285 23 56 17 18 191 231 68 141 159 158 187 179 129 131 111 139 140 123 126 98 87 88 49 61 109 120 134 146 150 153 151 148 148 149 152 154 158 159 160 165 169 172 172 173 173 171 170 174 183 184 188 193 196 211 214 212 222 224 222 226 233 240 237 231 251 264 258 273 291 266 276 306 297 275 308 328 314 1 14 17 17 12 10 8 11 6 3 0 356 352 346 337 330 333
204 275 334 37 51 354 229 222 220 195 177 173 169 185 178 136 139 142 166 145 125 119 105 97 86 80 94 113 124 137 146 151 156 155 152 154 157 160 161 164 166 165 167 172 176 176 176 176 176 174 177 185 185 187 191 193 204 208 208 219 225 225 228 233 238 237 239 250 258 250 249 254 247 256 270 258 260 284 292 297 354 356 13 18 15 16 16 17 9 9 6 358 355 351 349 343 338
233 305 1 35 3 24 263 252 218 210 190 171 175 184 172 143 141 158 180 147 139 129 118 122 105 103 114 121 132 142 148 153 157 159 158 160 164 165 163 166 170 168 168 173 178 180 180 179 180 180 181 185 187 189 192 195 197 200 204 211 218 220 220 223 223 227 234 237 246 249 242 250 258 269 270 263 263 266 277 304 329 343 8 13 14 21 20 16 12 14 9 3 1 2 3 337 321
216 246 337 320 270 240 228 245 213 182 166 169 175 174 168 161 151 165 184 153 155 149 136 144 129 125 130 132 140 147 153 156 159 163 164 166 167 167 166 167 170 170 171 172 176 182 182 181 182 183 184 185 189 194 196 197 198 200 203 206 212 215 217 217 215 219 227 231 241 251 252 261 268 276 282 285 276 276 297 307 322 349 3 356 4 8 355 354 359 353 350 359 357 352 340 309 309
158 200 237 213 230 225 199 202 177 166 158 170 170 165 168 165 160 168 192 164 156 149 142 149 141 140 142 142 147 154 157 158 163 168 169 170 168 169 169 168 170 170 171 173 176 183 184 183 183 184 187 188 192 197 199 200 199 202 205 207 210 212 215 215 214 216 223 232 238 249 256 265 272 275 281 283 273 273 280 288 304 328 339 330 342 341 325 330 330 312 313 325 308 297 291 302 317
183 199 237 237 219 281 167 157 143 151 147 165 170 166 163 159 166 175 191 152 90 46 138 139 144 149 150 150 152 159 161 162 168 171 173 174 171 171 170 169 169 167 171 175 178 183 186 187 185 185 188 192 196 198 202 203 201 205 208 209 210 212 216 216 219 220 223 233 234 241 252 262 272 273 277 275 270 270 273 279 284 296 305 306 315 318 326 326 312 307 303 300 293 291 288 298 304
235 207 226 263 207 171 196 152 134 144 141 156 166 162 161 174 174 172 185 120 86 308 152 142 150 155 153 152 157 163 166 168 171 174 177 177 175 174 171 171 172 170 174 179 180 183 187 190 188 187 189 192 198 202 205 207 206 209 210 210 211 212 215 218 223 224 226 234 234 235 244 254 262 265 270 270 270 268 267 271 277 289 294 300 316 320 323 323 315 311 306 303 296 291 291 287 282
240 280 146 62 47 140 154 137 130 127 121 137 159 167 178 191 178 170 195 131 106 169 140 143 149 153 153 158 165 167 169 172 174 176 178 179 179 176 173 176 177 174 178 182 184 186 190 193 192 192 192 193 198 203 208 211 212 211 212 214 215 217 217 220 225 228 234 239 241 239 241 248 255 258 259 259 264 263 265 271 278 283 286 299 311 310 315 322 321 314 309 302 295 295 295 289 285
218 285 83 99 84 100 115 118 119 112 114 134 162 179 190 196 202 209 198 154 140 142 132 142 147 151 157 166 169 169 172 173 175 175 177 180 180 179 180 184 184 182 183 186 188 191 195 194 195 197 197 197 199 203 209 214 216 214 215 215 217 222 221 223 227 230 237 242 247 248 245 246 252 257 256 257 259 260 266 270 274 280 284 293 296 299 306 313 315 314 314 302 300 306 299 297 298
176 125 97 113 108 106 107 107 113 109 115 142 157 177 191 191 221 237 204 164 162 156 139 145 152 153 161 169 168 171 175 174 176 175 175 179 180 184 188 189 190 191 190 189 192 195 196 196 199 202 202 203 203 205 209 214 217 217 218 217 216 221 222 226 229 232 237 238 243 248 248 249 253 260 261 262 261 261 262 263 266 272 277 281 285 293 301 305 308 308 307 305 310 312 305 303 299
121 123 106 114 113 110 105 106 117 110 111 140 150 157 173 180 212 228 174 158 172 172 150 152 159 157 164 168 167 175 177 175 179 176 177 179 182 189 192 194 196 196 196 195 196 198 197 199 202 204 206 207 207 209 213 214 217 220 220 220 220 221 222 225 230 234 236 238 238 248 258 260 259 261 264 266 265 264 262 258 260 264 269 274 277 285 293 300 302 301 301 304 307 307 304 299 291
127 127 112 114 113 113 122 121 130 121 115 141 147 146 162 183 210 203 124 150 179 174 158 162 165 162 166 168 168 176 177 178 182 181 182 182 184 191 193 195 197 197 199 199 198 199 200 202 204 206 207 211 214 213 216 219 220 222 223 223 224 223 225 228 233 235 236 238 238 249 262 266 264 262 264 268 268 266 264 260 260 260 264 270 275 280 289 294 292 291 293 294 294 296 298 294 287
148 151 131 130 137 134 134 134 148 152 124 150 168 167 178 192 207 188 142 158 175 169 170 174 169 164 168 170 170 175 179 181 185 187 187 186 187 192 195 195 196 197 199 200 200 199 201 203 206 208 207 212 218 216 215 219 219 221 224 225 225 226 229 233 236 237 238 239 242 253 262 265 267 264 264 268 268 266 264 264 264 264 265 270 276 281 287 288 283 284 287 288 287 288 289 289 289
170 209 242 154 159 155 148 147 159 162 121 168 205 176 151 181 182 161 156 168 173 172 180 181 171 167 170 173 174 174 181 185 187 190 189 189 190 193 197 194 195 197 195 199 202 201 201 201 203 207 209 211 216 216 215 217 218 219 222 225 229 235 237 237 240 241 241 242 246 257 263 265 267 265 265 266 266 266 264 265 266 269 272 274 277 281 285 284 281 284 287 288 287 284 284 286 292
193 208 219 208 25 133 153 161 165 164 134 183 224 357 89 149 157 155 158 169 181 183 182 181 174 171 171 175 179 177 183 191 192 191 189 191 192 193 197 193 193 197 195 199 203 202 202 203 204 207 210 212 214 218 220 224 225 223 226 228 231 238 240 241 241 240 242 245 246 253 261 265 267 267 266 263 261 265 265 267 269 272 278 281 282 284 285 283 283 283 283 287 288 286 286 287 289
224 232 165 50 17 112 144 173 183 175 143 188 228 347 87 122 153 170 171 173 186 189 180 179 176 177 175 175 183 184 185 192 194 193 191 193 195 194 196 194 194 198 200 201 202 205 207 207 209 213 214 213 216 220 223 227 229 226 229 233 231 234 239 242 242 242 244 245 245 247 252 261 268 270 268 264 259 261 267 271 274 277 282 285 287 289 287 283 280 279 281 285 289 292 293 290 288
186 301 12 32 4 99 135 174 194 178 147 188 230 286 75 110 156 176 176 184 188 186 181 179 178 180 182 180 185 187 186 189 193 197 195 195 199 199 199 199 199 203 206 206 205 209 212 210 212 219 220 216 215 217 218 221 225 225 229 234 234 233 237 242 243 245 247 246 248 248 246 251 265 271 271 269 261 258 265 272 279 285 289 289 288 286 284 282 279 278 279 280 285 288 290 290 291
115 347 7 42 2 9 129 164 188 186 182 196 215 248 54 104 147 172 177 193 190 184 180 178 180 185 187 188 188 189 189 192 194 198 200 199 200 202 204 204 206 210 212 214 215 216 219 217 217 221 224 222 216 213 213 217 221 227 233 234 235 235 237 242 244 246 246 245 248 250 245 244 254 261 266 268 262 257 264 272 281 285 282 279 277 275 276 279 279 280 280 279 282 284 285 289 291
339 349 350 7 36 356 98 130 169 184 203 214 202 223 194 138 153 167 175 192 195 190 184 178 181 186 188 192 194 194 195 198 198 198 201 204 204 205 209 210 213 217 219 221 223 225 227 227 226 225 226 227 222 214 213 216 219 228 237 235 233 236 236 239 243 245 244 245 247 246 246 251 258 261 264 267 262 256 258 265 269 268 268 270 269 269 271 272 273 276 278 279 281 283 282 281 282
323 328 324 329 341 79 72 101 153 177 203 216 214 227 197 166 166 174 178 186 197 195 188 184 184 185 189 196 197 197 203 205 201 199 200 204 208 208 212 216 219 223 226 228 228 228 229 229 230 229 227 227 224 218 214 216 220 225 231 231 231 234 235 238 241 241 241 244 245 242 247 260 269 269 266 264 260 255 254 256 253 254 265 269 266 266 267 269 270 272 276 280 281 280 279 274 270
304 302 299 310 312 94 92 112 148 181 215 204 208 234 227 177 168 176 177 179 195 199 192 191 191 189 191 198 199 197 206 211 205 204 203 206 210 211 212 217 221 223 226 228 230 230 228 228 228 229 229 227 224 221 217 218 222 222 225 230 234 236 238 240 241 242 241 242 245 243 244 255 268 270 262 254 251 249 249 249 244 251 262 261 260 265 269 272 273 274 279 282 280 277 276 273 272
276 287 298 294 290 90 100 122 142 178 230 180 170 233 240 209 183 175 177 184 194 196 197 196 194 195 194 199 203 199 202 208 207 206 206 209 212 212 212 216 222 225 225 226 228 230 230 230 229 231 231 228 228 226 223 226 227 228 232 235 243 250 249 248 251 253 248 245 248 247 242 245 255 256 248 247 250 250 247 244 244 256 264 260 257 264 267 270 272 277 281 282 281 277 274 272 271
271 276 286 287 40 106 121 141 147 174 231 155 156 235 229 200 197 184 185 198 200 196 201 200 194 197 198 199 201 202 201 202 205 206 207 211 212 211 212 216 222 225 227 227 227 228 229 230 230 231 232 231 233 230 228 233 234 235 237 239 250 261 257 256 258 255 251 251 249 242 243 254 257 243 233 246 254 253 248 246 248 256 262 259 257 261 264 267 270 274 273 269 271 272 271 268 260
259 264 277 291 123 179 158 158 167 180 220 11 214 256 230 190 195 197 199 203 203 201 204 203 199 199 201 200 198 202 203 201 206 208 209 211 209 208 211 217 220 223 227 227 227 226 226 227 227 227 230 232 234 232 231 236 238 235 236 242 252 256 255 256 256 254 254 256 252 242 242 254 259 248 237 242 248 250 253 261 262 255 254 257 258 262 265 267 269 269 267 263 263 267 269 267 258
246 257 297 313 298 280 52 137 157 174 205 224 250 253 224 188 192 201 196 193 198 202 204 205 202 202 204 204 201 203 204 202 206 208 208 209 206 205 208 215 218 220 225 226 225 224 223 225 224 223 226 231 234 234 234 235 232 228 230 241 248 247 250 251 251 255 256 255 253 252 250 249 252 251 244 243 246 247 257 271 271 258 255 259 260 264 267 268 268 266 266 265 262 261 265 270 266
262 81 359 323 306 278 141 145 163 190 199 193 230 251 174 158 202 203 172 175 193 195 202 205 199 201 205 206 205 205 207 205 207 208 204 203 201 202 205 210 216 219 220 222 224 222 221 222 222 221 225 231 236 236 234 229 224 223 223 230 237 239 245 246 247 254 259 256 255 258 258 253 249 250 248 246 246 245 253 265 266 259 257 259 259 262 265 266 266 263 261 259 255 252 252 259 262
270 56 4 320 298 229 168 173 198 225 142 152 219 261 107 143 199 196 173 187 198 189 200 208 197 199 202 204 204 204 207 205 205 208 204 200 197 200 206 207 212 217 215 215 218 218 217 217 219 220 223 229 236 237 230 223 222 223 226 235 243 245 248 250 254 261 267 267 264 262 261 257 253 253 254 252 247 247 252 255 256 254 254 255 256 258 261 263 265 264 261 256 252 250 243 242 250
344 29 347 315 274 192 175 197 225 246 103 153 198 248 285 215 163 170 184 201 204 196 205 209 201 201 201 203 202 201 205 202 199 202 203 204 200 202 209 207 209 212 208 206 208 209 208 209 213 215 219 226 233 233 223 220 224 226 229 239 246 249 254 260 264 267 270 272 270 267 264 263 258 253 254 254 248 246 249 251 248 246 248 253 255 257 258 259 261 263 262 258 253 248 242 240 244
19 16 331 309 219 190 182 207 224 202 218 199 170 182 258 234 139 166 192 202 210 207 208 208 205 204 202 203 202 199 201 199 199 199 197 202 203 204 207 206 206 206 203 197 197 202 202 201 205 206 211 220 224 223 218 220 228 230 231 238 245 250 257 264 266 266 268 271 272 271 269 268 262 254 252 251 246 243 245 247 244 243 249 254 256 256 256 256 257 258 257 256 252 246 242 241 242
40 1 280 154 167 177 188 217 195 192 245 237 164 180 248 240 162 179 191 205 219 212 207 206 204 204 203 203 201 197 197 196 199 198 193 196 201 204 205 201 200 202 200 196 195 200 202 198 198 201 207 214 215 216 217 221 228 230 230 236 243 248 253 259 262 261 261 265 269 271 268 265 261 256 253 250 249 248 246 245 245 247 251 254 253 253 255 257 256 256 255 253 251 248 244 241 240
321 229 194 147 152 162 180 205 185 218 237 218 156 183 252 276 174 158 160 194 209 200 199 201 199 201 202 202 200 196 193 191 194 195 189 192 198 201 202 199 196 198 199 200 201 204 207 206 202 203 210 214 212 210 211 216 220 223 226 233 238 243 248 252 254 254 254 257 261 264 263 260 257 255 254 254 255 253 249 249 251 254 254 253 252 253 257 260 261 260 259 256 251 248 246 244 242
222 231 209 176 158 167 178 167 199 237 228 134 144 191 233 250 194 125 118 155 179 185 192 196 198 198 196 199 201 196 191 188 187 190 187 187 193 197 199 199 196 198 200 203 207 206 208 213 209 208 211 212 211 208 207 209 212 216 221 227 232 236 240 244 248 251 251 252 256 260 260 256 253 252 252 256 257 255 253 253 254 255 253 251 253 259 264 267 268 266 263 260 256 251 248 245 243
221 233 224 217 200 195 210 198 207 233 171 113 150 210 236 249 231 188 190 190 195 208 197 191 198 198 193 194 197 193 191 188 183 186 186 183 188 192 195 197 196 199 203 205 209 208 207 210 209 209 209 208 208 207 206 207 210 215 218 222 227 229 231 236 244 250 253 256 260 265 266 263 260 256 254 259 263 263 260 257 255 253 251 251 255 261 266 269 270 268 264 261 258 256 253 247 242
213 227 222 223 219 215 222 216 225 237 144 118 159 221 248 251 237 219 214 199 202 219 213 203 205 203 196 191 192 191 189 188 182 183 185 182 185 189 191 194 195 199 203 204 207 207 206 205 205 207 207 204 204 207 211 213 217 223 224 226 227 225 228 232 239 249 256 260 264 270 275 276 276 272 268 270 273 273 270 265 260 258 258 259 260 262 265 267 267 265 262 260 259 258 256 251 247
210 230 240 242 239 234 231 220 232 236 156 135 164 210 252 245 132 120 137 153 189 218 208 203 211 209 200 193 191 188 187 188 182 182 186 182 182 186 188 191 194 197 201 201 199 198 200 200 200 203 203 203 206 211 217 220 226 229 226 228 230 229 231 232 235 248 260 268 273 278 282 284 284 284 281 279 277 275 273 270 267 266 267 267 266 265 266 266 264 261 258 258 257 256 254 253 252
206 214 243 251 249 240 241 252 265 276 247 190 184 223 262 262 143 164 175 181 198 209 200 195 201 196 193 195 191 186 186 187 183 183 185 182 181 185 186 189 192 192 194 197 194 192 196 197 196 201 204 207 211 212 215 219 223 222 216 216 219 218 224 236 242 243 252 269 280 284 286 284 283 284 282 279 276 273 272 272 271 271 271 270 268 267 265 264 263 260 258 256 254 254 253 252 252
180 203 225 231 288 268 252 233 236 259 255 222 188 240 253 231 219 200 197 215 211 209 208 196 190 185 184 190 188 184 185 185 184 185 184 181 182 184 186 189 190 189 189 193 194 193 194 193 194 197 200 204 207 206 209 211 211 210 205 205 210 215 226 240 245 238 244 265 272 273 278 279 281 283 284 282 280 278 276 275 275 275 274 272 269 267 264 262 260 259 257 257 256 255 254 253 253
206 222 206 159 209 266 262 246 214 227 247 225 197 248 257 238 226 171 180 218 203 194 204 190 178 179 181 185 185 185 186 186 186 185 183 182 183 185 188 190 190 190 189 191 195 195 191 191 194 196 197 200 200 199 204 206 204 203 205 211 219 225 228 228 222 218 234 256 265 272 281 285 287 289 288 286 284 280 278 276 275 275 273 271 269 268 267 265 262 259 258 258 258 257 256 255 254
246 287 224 191 227 221 216 236 242 237 246 241 218 238 258 253 249 212 218 237 202 171 185 188 181 179 183 185 183 184 186 186 186 186 185 183 185 186 188 191 190 189 191 192 193 194 192 191 194 197 199 198 194 193 197 202 205 212 222 227 223 217 212 204 203 212 228 254 275 286 290 290 290 290 288 287 283 281 280 278 276 274 272 269 268 267 266 265 263 261 260 259 260 259 257 255 255
233 272 242 234 262 258 222 224 244 251 253 256 236 228 250 249 253 265 263 270 259 182 175 190 192 183 183 183 179 183 186 185 186 189 188 185 186 187 187 191 191 187 192 197 192 194 196 192 190 194 196 192 189 189 192 196 205 220 232 227 214 205 204 207 211 219 237 267 284 290 291 290 291 290 289 288 284 281 281 279 278 277 274 271 270 268 267 266 264 262 260 261 263 264 260 257 258
200 223 224 220 227 262 259 230 236 254 258 261 255 247 258 332 13 285 288 355 295 230 178 191 196 187 182 179 179 180 181 185 188 191 191 186 186 188 187 189 190 186 190 193 191 197 198 189 187 193 192 188 187 189 193 198 205 216 221 218 214 211 210 218 224 229 246 270 283 286 288 289 289 288 286 285 284 282 280 278 276 276 275 272 270 269 269 268 266 264 262 264 266 266 264 261 261
221 217 217 220 215 221 237 226 219 238 256 264 273 272 280 60 66 311 298 90 42 301 195 190 191 189 180 173 177 179 180 188 192 194 192 185 185 188 185 184 185 184 185 186 189 196 193 185 186 189 188 188 192 194 198 203 208 213 214 216 221 222 221 226 231 237 251 269 280 282 283 283 282 282 282 282 283 283 281 278 276 275 273 272 270 267 267 266 265 264 263 264 266 265 264 262 261
Height
783 785 786 787 787 789 788 788 801 797 795 800 782 779 786 777 778 783 782 782 783 778 773 776 773 773 780 783 782 780 781 785 789 799 805 793 786 789 789 791 794 797 800 803 805 807 809 810 812 813 814 815 816 817 818 819 820 821 822 823 823 824 824 825 825 826 827 827 828 828 829 829 830 830 830 831 831 832 831 831 831 831 832 832 832 832 832 833 833 832 832 832 831 831 831 830 831
784 786 786 788 786 790 790 787 805 804 802 805 779 775 785 779 781 784 781 781 781 775 770 771 772 774 776 775 774 780 782 778 779 785 789 785 787 790 790 793 794 797 800 803 805 807 809 810 812 813 815 815 816 817 818 819 820 821 822 823 823 824 824 825 826 827 827 828 828 829 829 830 830 830 831 831 832 832 832 832 832 832 832 832 832 832 832 832 832 832 832 832 832 831 831 831 831
784 785 786 788 787 789 790 793 804 808 815 811 786 776 779 782 783 781 778 778 776 772 770 770 774 776 777 781 779 785 787 777 775 779 784 786 787 789 791 793 795 798 800 803 805 807 809 810 812 813 815 816 816 817 818 820 820 822 823 823 824 824 825 825 826 827 827 828 829 829 830 830 831 831 831 832 832 832 832 833 833 832 832 832 832 832 832 832 832 833 833 832 832 832 831 831 831
784 786 786 786 789 792 797 805 802 802 815 807 789 781 777 783 781 778 777 775 774 770 771 772 778 775 776 787 780 782 787 778 776 778 783 785 785 789 791 793 796 799 801 803 805 807 809 810 812 814 815 816 817 818 818 820 821 822 823 824 824 825 825 826 826 827 828 829 829 830 830 831 831 831 832 832 832 833 833 833 833 833 832 832 832 832 833 833 833 833 833 833 833 832 832 831 831
786 787 787 786 791 796 799 807 802 796 804 798 793 788 779 780 778 778 777 775 773 771 771 773 781 777 774 781 777 783 786 779 777 777 782 784 786 790 791 794 797 798 802 804 806 808 810 811 812 813 815 816 817 818 819 820 821 822 823 824 824 825 826 826 827 827 828 829 829 830 830 831 831 832 832 832 833 833 833 833 833 833 832 832 832 832 833 833 833 833 833 833 833 832 832 832 832
786 787 788 787 789 793 800 807 804 790 784 785 791 789 779 777 777 778 778 776 772 769 769 772 778 779 778 777 775 780 780 779 779 777 781 784 788 790 792 795 797 799 802 804 807 809 810 811 812 814 815 816 817 818 819 820 821 823 823 824 825 825 826 826 827 828 828 829 830 830 830 830 831 831 831 832 832 832 833 833 833 833 833 833 832 833 833 833 833 833 833 832 832 832 832 832 832
785 789 791 794 792 794 804 804 795 784 780 780 781 782 779 777 776 777 780 780 778 772 770 771 770 777 785 778 778 779 777 780 778 779 782 785 789 791 794 796 798 800 802 805 807 809 810 811 813 814 815 816 817 818 820 821 822 823 824 824 825 826 826 827 827 828 828 829 830 830 830 830 831 831 831 831 832 832 833 833 833 833 833 833 832 833 832 833 833 833 833 832 832 832 832 831 831
785 789 792 797 798 800 803 794 784 781 782 778 774 777 777 777 775 777 781 781 782 777 774 772 767 781 787 777 784 782 777 781 778 782 784 785 790 792 795 796 799 801 803 806 808 810 810 812 813 814 815 817 818 819 820 821 822 823 824 825 825 826 826 827 827 828 828 829 829 830 830 830 830 831 831 831 831 832 832 833 833 833 833 833 832 832 832 832 832 832 832 832 832 831 831 831 831
784 789 794 798 800 804 798 783 781 781 779 777 775 777 776 775 775 777 780 779 778 776 775 771 768 783 787 780 787 781 777 783 781 784 785 788 791 793 796 797 800 801 804 807 808 811 811 813 814 815 816 817 818 819 820 821 822 823 824 825 826 826 827 827 827 828 828 829 829 829 830 830 830 830 831 831 831 832 832 833 832 833 832 832 832 832 832 832 832 832 832 832 832 831 831 830 830
785 790 795 798 797 799 793 779 778 780 779 778 777 777 777 775 774 776 779 779 774 773 773 768 772 782 784 785 787 781 781 783 783 786 787 789 791 794 796 798 801 802 805 807 809 811 812 813 814 816 817 818 819 820 821 822 823 824 825 825 826 827 827 827 827 827 828 828 829 829 829 830 830 830 830 830 831 831 831 832 832 832 832 832 832 832 832 832 832 832 832 832 831 831 831 831 830
789 790 791 801 798 793 791 780 777 781 780 779 779 777 776 774 775 776 776 778 773 773 772 770 777 780 782 786 786 783 783 783 784 787 788 791 793 795 797 799 802 803 805 807 810 812 813 814 815 816 817 819 820 820 822 822 823 824 825 826 826 827 827 827 827 827 827 828 828 829 829 830 830 830 830 830 830 831 831 831 831 831 831 831 831 831 831 831 832 831 832 831 831 831 830 830 830
789 788 786 800 794 784 788 785 784 785 783 784 784 778 774 773 776 777 777 778 773 774 773 773 776 775 785 790 785 784 783 784 785 787 790 792 794 796 798 800 802 804 806 808 810 812 813 815 816 817 818 820 820 821 822 823 824 824 826 826 827 827 827 827 827 827 827 828 828 829 829 829 830 829 830 830 830 830 830 830 830 830 830 830 830 830 831 831 831 831 831 831 831 830 830 830 829
785 782 782 793 785 780 788 791 792 792 789 788 784 777 773 774 776 775 775 775 772 776 773 769 769 772 787 789 785 785 784 785 786 789 791 793 796 797 799 801 803 805 807 809 810 812 814 815 816 818 819 820 821 822 822 823 824 825 826 826 827 827 827 828 827 827 827 828 828 829 829 829 829 829 829 829 829 829 830 830 830 830 830 830 830 830 830 830 830 830 830 830 830 829 829 829 829
780 778 781 788 783 784 793 797 797 797 795 787 781 777 773 775 774 771 771 774 774 772 768 763 764 775 786 787 788 785 784 787 787 790 792 794 797 798 801 802 804 806 807 809 811 812 814 815 817 818 819 820 821 822 823 823 824 825 826 826 827 827 828 828 827 827 827 828 828 828 829 829 829 829 829 829 829 829 829 830 830 830 829 829 829 829 829 829 829 829 829 829 829 828 828 828 827
778 778 780 784 784 787 794 800 798 798 795 784 780 777 775 774 770 771 770 774 776 764 761 763 763 776 784 785 787 782 783 788 788 790 792 795 797 799 802 803 805 806 808 809 811 813 814 815 816 818 819 820 822 822 823 824 824 825 826 826 827 827 828 828 827 827 827 828 828 828 829 828 829 828 828 829 828 829 829 829 829 829 829 829 829 829 829 829 829 829 829 828 828 828 827 827 827
775 777 782 784 788 792 793 795 796 798 792 781 779 775 778 775 768 773 769 767 772 762 763 768 765 773 778 778 778 776 782 787 788 791 792 796 798 800 802 803 806 806 808 810 811 813 813 815 816 818 819 820 822 822 823 824 824 825 825 826 826 827 828 828 827 827 827 828 828 828 828 828 829 829 828 829 828 828 828 829 829 829 829 829 829 829 829 828 828 828 828 828 827 827 827 826 826
774 779 785 785 791 796 792 790 792 793 786 779 777 775 780 780 770 770 763 762 771 768 768 770 766 768 772 773 773 776 784 786 788 791 792 796 798 800 802 803 805 806 808 809 811 813 813 815 816 817 818 820 821 822 823 824 824 824 825 826 826 827 827 828 827 827 827 827 828 828 828 829 829 829 829 829 829 829 829 828 829 829 829 829 829 829 828 828 828 828 828 827 827 827 826 826 825
778 783 786 788 791 792 788 785 783 782 780 777 775 773 778 781 776 768 765 768 771 773 774 772 770 770 771 772 774 779 784 786 788 790 792 795 797 798 801 802 804 806 808 809 811 812 814 815 816 817 818 820 821 822 823 823 824 824 825 826 826 827 827 828 827 827 828 828 828 828 828 829 829 829 829 828 828 828 828 828 828 828 829 828 828 828 828 828 828 828 828 827 827 826 826 826 825
779 783 787 790 787 784 780 777 776 776 776 775 773 771 774 778 775 769 772 777 774 778 780 776 778 777 775 775 777 781 783 786 788 790 792 793 795 797 799 801 803 804 806 808 810 812 813 815 816 817 818 819 820 822 822 823 824 824 825 825 826 826 827 827 828 828 828 828 828 828 828 828 828 828 828 828 828 828 828 828 828 828 828 828 828 828 828 828 828 827 827 827 826 826 826 826 825
777 782 792 792 785 783 779 773 771 769 768 772 773 770 774 774 770 770 775 777 776 780 782 780 783 782 779 778 778 782 783 786 788 790 792 793 794 796 798 800 801 804 806 807 809 811 813 814 815 816 817 818 820 821 822 822 823 823 824 825 825 826 826 827 827 827 827 827 827 827 828 828 828 828 827 827 828 828 828 828 828 828 828 828 828 828 827 827 827 827 826 826 826 826 826 826 825
776 780 788 786 780 781 775 768 766 763 763 769 771 771 776 771 767 772 774 779 782 778 776 776 780 780 779 778 778 781 783 785 787 789 790 792 793 795 796 798 801 803 805 807 809 810 812 813 814 815 817 818 819 820 821 822 822 823 823 824 824 825 825 826 826 827 827 826 826 827 827 827 827 827 828 827 828 828 828 828 828 828 828 828 828 828 827 827 826 826 825 825 825 825 825 824 824
774 776 776 773 772 777 770 762 763 761 762 767 771 774 776 770 770 773 775 784 787 777 771 771 773 775 775 776 777 780 781 783 786 787 789 791 792 793 796 798 800 802 804 806 808 810 811 813 814 815 816 817 818 819 820 821 821 822 823 823 824 824 824 825 825 826 826 826 826 826 827 827 827 827 827 827 828 828 828 828 828 828 828 828 828 827 827 827 826 825 825 825 824 824 823 823 823
773 773 767 765 765 773 771 761 762 761 763 770 771 771 770 773 776 772 773 781 780 770 766 768 770 771 772 774 776 779 781 782 784 786 788 789 791 793 795 797 799 801 804 806 807 809 810 811 813 814 815 816 817 818 819 820 820 821 822 822 823 823 824 824 825 825 825 825 825 826 826 827 827 827 827 827 828 828 828 828 828 828 828 827 827 827 826 826 826 825 825 824 824 823 822 822 822
771 773 765 763 763 767 766 760 761 760 765 769 766 768 771 777 779 773 774 775 771 766 763 765 769 769 772 775 776 778 779 781 783 785 787 788 790 792 794 797 799 801 803 805 807 808 810 811 812 813 814 815 816 817 818 819 819 820 821 821 822 822 823 823 824 824 824 824 824 825 826 826 827 827 827 827 827 827 828 828 828 828 827 827 827 826 826 825 825 824 824 824 823 822 821 821 820
767 769 763 762 765 764 761 760 762 762 765 765 765 772 774 774 774 775 775 772 768 765 763 766 768 770 773 776 777 778 779 780 782 784 787 788 790 793 795 797 798 800 802 804 806 807 808 810 811 812 813 814 815 816 817 818 818 819 820 821 821 821 822 823 823 823 824 824 824 824 825 826 826 826 826 826 827 827 827 827 827 827 827 827 826 826 825 825 824 823 823 823 822 821 821 820 819
761 762 762 764 766 763 762 762 763 764 764 765 770 776 774 769 771 776 771 768 768 764 766 768 769 773 775 776 777 778 779 780 782 783 786 788 790 792 794 796 797 799 801 802 804 806 807 808 810 811 812 813 814 815 816 817 817 818 819 820 820 820 821 822 822 823 823 824 824 824 824 825 826 826 826 826 826 826 826 826 826 826 826 826 826 825 824 824 824 823 822 822 821 821 820 819 819
753 758 762 763 766 764 763 765 764 764 765 766 772 778 774 767 773 780 769 763 766 765 769 770 770 775 776 776 777 778 780 781 782 783 785 787 789 791 793 795 796 797 799 801 802 804 806 807 808 809 811 811 812 814 814 815 816 817 818 818 819 819 820 821 821 822 822 823 823 823 822 823 824 825 825 825 825 825 825 825 825 825 825 825 825 824 824 824 823 823 822 821 821 820 820 819 818
752 757 763 765 765 766 765 767 766 765 769 766 768 775 774 770 775 778 767 762 763 766 771 771 772 775 774 776 778 778 780 781 783 783 784 786 787 790 791 793 794 796 797 799 801 802 804 805 807 808 809 810 811 812 813 814 815 816 817 817 818 819 819 819 820 821 821 822 822 821 821 822 823 823 824 824 824 824 824 824 824 824 824 823 823 823 823 823 823 822 821 821 820 820 819 818 817
753 754 766 770 766 770 769 768 768 767 772 765 766 779 780 776 776 769 763 762 762 766 772 771 772 774 774 776 777 778 779 780 782 782 783 784 786 788 789 791 792 794 795 797 799 800 802 804 805 806 807 808 809 810 812 813 814 815 815 816 817 817 817 818 819 820 820 820 820 820 820 821 821 822 822 823 823 823 823 823 822 822 822 822 822 822 822 822 821 821 820 819 819 818 817 816 815
756 754 761 767 770 778 770 766 768 768 771 763 768 789 786 775 770 763 761 762 764 770 772 771 772 773 774 776 776 778 778 779 780 781 782 783 785 786 787 789 791 792 794 796 797 799 801 802 803 805 806 807 807 809 810 811 812 813 814 815 815 816 816 817 817 818 818 818 819 818 819 819 820 820 821 822 822 822 822 821 821 821 821 821 821 821 821 820 820 819 819 818 817 816 815 814 813
757 759 760 762 774 782 770 764 769 773 772 762 771 791 786 773 768 763 760 761 766 771 771 770 771 772 774 775 776 777 777 777 778 779 781 782 784 785 786 788 789 791 793 794 796 797 799 800 802 803 804 805 806 807 808 809 810 811 812 813 814 814 814 815 816 817 817 817 817 817 817 817 818 818 819 820 821 821 821 820 820 820 820 820 820 820 819 819 818 818 817 816 815 814 813 813 812
755 764 769 763 769 777 771 765 766 773 772 763 774 788 783 774 768 762 760 761 766 770 770 769 771 772 774 775 775 776 775 775 776 777 780 782 783 784 785 787 788 790 791 793 795 796 798 799 800 801 802 803 804 805 806 807 809 810 811 811 812 813 812 813 814 815 815 815 816 816 815 815 815 816 817 818 819 819 819 819 819 819 819 819 819 819 819 817 817 816 815 815 814 813 812 811 811
755 762 771 767 766 771 773 770 761 765 772 769 775 783 781 775 768 761 759 762 766 769 770 769 771 772 772 774 774 775 775 775 776 777 778 780 782 784 785 786 788 789 790 791 793 794 796 797 798 800 800 802 803 804 805 806 807 808 809 809 810 811 811 811 812 813 813 813 814 814 814 814 814 814 815 816 817 818 818 818 818 818 818 818 818 818 818 816 815 814 813 814 813 813 812 810 809
762 760 765 765 765 767 772 776 765 761 770 773 774 778 777 773 767 762 761 761 764 769 770 769 770 772 771 772 773 774 776 777 776 776 778 779 780 783 784 785 787 788 789 790 792 793 794 796 797 798 799 801 802 803 804 805 806 806 806 807 808 808 809 809 810 810 811 811 811 812 812 812 812 813 813 814 814 816 817 817 817 817 816 816 816 816 816 815 814 813 812 812 812 812 811 810 808
769 766 765 765 763 764 768 772 767 762 769 772 774 777 774 769 767 764 761 760 764 767 767 768 769 770 771 771 772 773 774 775 774 774 777 778 779 781 783 784 786 787 788 789 790 792 793 794 795 797 798 799 801 801 802 803 804 804 804 805 806 805 806 807 807 808 808 809 809 809 809 809 810 811 811 812 812 814 815 815 815 815 814 815 815 814 814 813 813 812 811 811 811 811 810 809 808
766 764 765 767 764 763 760 761 759 758 768 772 771 775 770 767 767 764 761 760 764 766 765 767 768 769 771 771 770 771 772 771 769 771 775 777 778 780 782 783 785 786 787 788 789 790 792 793 794 795 796 797 799 800 800 801 802 802 802 803 803 803 804 804 805 805 806 806 806 807 807 806 807 808 809 809 810 812 813 813 813 812 812 813 813 812 811 811 810 810 810 809 809 809 808 807 806
761 761 762 762 762 762 757 759 756 752 766 769 764 768 766 764 763 761 760 761 764 766 766 767 767 768 769 770 769 770 771 768 766 769 772 774 776 778 780 782 783 784 786 787 788 788 789 791 792 793 794 795 796 797 798 798 799 799 800 800 800 801 802 803 803 804 804 804 804 804 805 805 805 805 806 807 808 809 809 810 810 809 809 810 810 809 809 809 809 809 809 809 808 807 805 804 804
760 761 761 759 758 759 756 757 756 753 765 766 760 767 766 761 760 758 758 762 764 764 765 766 766 766 767 767 768 768 768 766 766 768 769 772 774 775 778 780 781 782 783 784 785 786 787 788 789 790 792 793 793 795 796 796 796 796 797 797 798 799 800 801 802 802 802 803 802 802 803 803 803 803 804 804 805 806 806 807 806 805 806 806 807 806 806 806 806 807 807 806 806 806 803 802 803
758 758 760 761 755 756 759 758 755 756 764 766 763 768 765 757 755 755 757 759 759 756 758 760 762 765 765 765 767 766 767 767 766 766 767 768 770 773 775 777 778 779 780 781 782 784 785 786 787 788 789 790 791 792 793 793 793 794 795 796 797 798 798 799 800 800 801 801 801 801 801 800 801 802 802 802 802 803 803 803 803 803 803 803 803 803 803 804 804 804 804 804 804 804 801 799 800
756 755 758 760 753 757 767 764 759 757 759 764 765 766 762 755 755 756 754 754 754 752 752 753 755 759 761 760 761 763 764 766 765 764 763 764 767 770 772 773 775 776 777 778 779 781 782 783 784 786 787 788 789 790 790 791 792 793 793 794 795 796 797 798 798 798 798 798 798 799 799 798 798 799 800 800 799 799 800 800 800 800 800 800 800 801 801 801 802 801 801 801 801 800 798 797 797
750 749 756 758 752 753 760 763 762 760 760 761 765 771 763 755 761 760 752 752 754 753 753 753 753 753 755 755 756 758 759 761 762 762 761 761 763 766 768 771 772 773 774 774 775 777 778 780 782 783 785 785 786 787 788 789 791 791 791 792 793 794 795 795 795 795 795 795 796 796 797 797 797 797 797 797 797 797 797 797 797 798 798 798 799 799 799 799 799 798 798 798 798 797 797 796 796
750 749 753 753 752 752 755 760 763 768 772 761 762 782 775 756 759 760 753 756 758 756 756 756 755 753 754 756 756 755 755 755 757 757 758 758 760 763 765 767 769 769 770 771 772 773 775 777 779 781 782 783 784 785 787 787 788 789 790 790 791 791 792 792 791 791 792 793 793 793 794 795 795 795 795 794 794 794 794 794 795 795 796 796 797 797 796 796 795 795 795 795 795 795 795 795 794
758 751 748 748 749 751 757 760 761 769 776 762 757 779 783 764 759 755 752 758 757 756 757 754 754 754 753 754 754 754 753 753 754 754 754 755 758 760 762 763 765 766 767 768 770 771 772 774 776 778 780 781 782 783 785 785 786 787 788 788 788 789 789 788 789 789 790 790 790 791 792 793 793 793 792 792 792 792 792 792 792 793 793 794 794 794 793 793 792 791 791 791 791 792 792 792 791
758 747 744 747 748 752 755 757 758 759 764 764 757 766 780 775 763 752 750 757 757 756 757 753 750 751 750 749 749 750 750 750 751 753 753 753 755 757 759 760 761 763 764 766 768 769 770 773 775 776 778 779 780 781 782 783 784 784 785 786 786 786 786 786 787 787 788 789 789 789 790 790 791 790 790 790 790 790 790 790 790 790 791 791 791 791 790 790 789 789 789 789 789 789 789 788 788
753 744 744 746 746 749 749 751 755 753 762 774 764 762 780 780 764 754 752 756 760 756 753 751 748 747 746 746 745 745 745 746 747 749 750 751 752 754 756 757 759 761 762 764 766 767 769 771 773 775 776 777 778 779 780 780 781 782 783 784 784 785 785 785 786 786 787 787 787 787 788 788 788 788 788 787 788 788 787 787 788 788 788 788 788 788 787 787 786 786 786 786 786 786 786 785 785
746 742 745 744 744 746 747 750 754 759 772 778 765 762 779 778 760 756 759 759 756 750 745 744 743 742 742 742 742 742 742 743 743 744 746 748 750 752 753 755 757 759 760 762 764 766 767 769 771 773 774 775 776 777 778 779 780 781 782 782 783 784 784 784 785 785 786 786 786 786 786 786 787 786 786 786 785 785 785 785 785 785 785 785 785 785 784 784 783 783 783 783 783 782 782 782 782
742 743 746 748 748 747 750 750 753 771 781 770 758 757 771 779 760 747 752 750 742 739 739 738 737 737 739 738 738 738 739 741 742 742 744 746 748 750 752 753 755 758 759 761 762 764 765 767 769 771 772 773 775 775 776 777 778 779 780 781 781 782 783 783 784 784 785 785 785 785 784 784 785 785 785 784 784 784 783 783 782 782 782 782 782 782 781 781 780 780 780 779 779 778 779 778 778
743 746 748 756 761 756 760 761 763 783 786 766 755 753 765 781 764 740 739 736 730 732 734 734 734 734 735 735 735 734 736 738 740 742 743 744 747 748 750 752 753 756 758 759 760 762 764 765 767 769 770 772 773 774 775 776 777 778 778 779 780 781 782 782 782 783 783 784 783 783 782 782 782 783 782 782 782 781 781 780 780 780 779 779 779 779 778 778 778 777 776 776 775 775 775 775 775
745 748 753 767 776 776 781 779 774 781 778 762 755 756 766 769 749 733 733 731 728 727 726 727 729 729 731 732 732 732 733 735 737 740 741 743 746 747 748 751 752 754 756 757 759 760 762 764 765 767 768 770 771 772 774 774 775 776 777 778 778 779 780 780 781 781 782 781 781 780 780 780 780 780 780 779 778 778 778 777 777 777 777 776 776 776 776 776 776 775 774 773 772 771 772 771 771
749 749 755 768 777 789 797 788 780 780 773 760 753 761 770 761 738 726 725 724 723 721 721 723 724 724 726 727 728 729 730 733 735 737 739 741 743 745 747 749 751 753 754 755 757 759 760 762 763 765 767 768 770 771 772 773 773 774 775 776 777 777 778 779 779 779 779 779 779 779 778 777 777 777 777 777 776 776 775 775 775 774 774 774 774 773 773 773 773 773 771 770 770 769 769 768 767
742 735 741 755 760 775 788 783 782 780 772 765 763 767 769 758 741 725 719 719 718 719 719 721 723 722 721 722 724 727 729 730 732 734 736 738 740 743 745 747 749 751 752 753 755 757 759 761 762 764 765 767 768 769 770 771 772 772 773 774 775 776 776 777 777 778 778 778 777 777 776 776 775 775 774 774 774 773 773 772 772 772 771 771 771 770 770 770 770 769 769 768 767 767 766 765 765
736 726 741 752 742 747 764 767 765 766 771 772 768 763 748 735 729 718 718 722 718 719 720 721 726 722 720 723 722 725 728 728 730 733 734 736 737 740 743 745 747 748 751 752 753 755 757 759 761 762 764 766 767 768 769 769 770 771 771 772 773 774 775 775 776 776 776 776 776 775 775 775 774 773 773 772 772 771 770 770 769 769 768 768 767 767 767 767 766 766 765 764 764 764 763 762 762
736 737 747 740 723 731 754 764 758 762 778 771 758 757 739 729 729 716 718 726 721 721 721 720 724 722 722 725 722 724 726 726 728 730 732 733 735 738 740 742 744 746 748 750 751 754 755 757 759 761 762 764 765 766 767 768 768 769 770 771 772 772 773 773 773 774 775 775 775 774 774 773 773 772 771 770 770 769 768 767 767 766 765 765 764 764 764 763 763 763 762 761 761 760 760 759 758
738 745 735 723 726 733 745 765 769 772 782 767 754 758 749 747 746 725 722 730 724 722 721 719 722 722 724 725 722 723 723 723 726 726 729 731 733 736 738 740 742 743 746 748 750 752 754 756 758 759 761 762 763 764 765 766 767 767 768 769 770 770 770 771 771 772 773 773 772 772 771 771 770 770 769 769 768 767 766 766 765 764 763 762 761 761 760 760 760 759 759 758 757 757 757 756 755
727 731 719 725 749 752 749 765 774 777 783 770 757 756 750 748 745 729 726 727 721 722 723 722 722 722 722 722 721 722 721 723 725 725 727 729 730 733 735 737 739 742 744 746 749 752 753 755 757 758 759 760 761 762 763 764 765 765 766 766 767 768 769 770 770 771 771 770 770 769 769 769 768 768 767 767 766 765 764 763 762 761 760 759 758 758 757 757 757 756 756 755 754 754 753 752 752
724 726 722 726 739 745 745 752 756 765 778 773 764 762 753 738 727 722 723 719 718 723 724 724 722 719 719 718 718 720 721 723 724 724 725 726 728 731 733 736 738 740 743 744 747 750 751 754 755 756 758 758 760 761 761 763 764 764 764 764 766 767 767 768 768 768 768 768 767 767 766 766 766 766 765 765 764 763 762 761 760 759 757 756 756 755 754 754 753 753 752 751 751 750 750 749 748
731 737 737 735 734 735 740 741 740 750 767 771 770 771 754 726 714 717 718 716 717 719 721 723 720 716 715 715 716 719 720 722 722 721 722 723 726 728 731 735 737 739 742 743 746 748 749 752 753 755 756 757 758 759 760 761 762 763 763 764 764 765 766 766 766 766 766 765 765 764 764 764 763 764 763 762 762 761 760 759 758 757 755 754 753 752 752 751 750 750 749 749 748 748 747 746 746
721 729 731 732 733 739 753 757 743 740 753 757 763 772 752 720 713 716 715 717 717 715 718 721 718 714 713 713 715 717 719 720 719 718 719 720 723 725 729 733 735 738 741 743 745 747 748 751 752 753 755 756 757 758 759 760 761 762 762 762 763 763 764 764 764 764 763 763 762 762 761 762 761 761 761 760 759 758 757 756 755 754 753 752 751 750 749 748 748 747 747 746 745 744 744 743 743